FW0821 Weather Reports


time (UTC)temp
C
wind
direction
speed
KPH
gust
KPH
rain 1hr
cm
rain 24hr
cm
rain mn
cm
humidity
%
barometer
mb
20260507060220 11 180 3.2 6.4 0.00 0.00 0.00 85 1021.9
20260507055220 11 203 1.6 3.2 0.00 0.00 0.00 85 1022.0
20260507054220 11 180 1.6 4.8 0.00 0.00 0.00 84 1022.2
20260507053220 11 180 3.2 6.4 0.00 0.00 0.00 84 1022.2
20260507052220 11 203 8.0 9.7 0.00 0.00 0.00 84 1022.1
20260507051219 11 203 3.2 8.0 0.00 0.00 0.00 83 1022.0
20260507050218 12 203 3.2 6.4 0.00 0.00 0.00 83 1022.0
20260507045220 12 180 4.8 6.4 0.00 0.00 0.00 83 1022.1
20260507044219 12 180 6.4 9.7 0.00 0.00 0.00 82 1022.1
20260507043220 12 180 6.4 9.7 0.00 0.00 0.00 82 1022.2
20260507042220 12 158 6.4 9.7 0.00 0.00 0.00 81 1022.0
20260507041240 12 203 3.2 6.4 0.00 0.00 0.00 81 1021.9
20260507040220 12 180 4.8 6.4 0.00 0.00 0.00 80 1021.8
20260507035220 12 180 4.8 8.0 0.00 0.00 0.00 80 1021.7
20260507034220 12 203 3.2 4.8 0.00 0.00 0.00 79 1021.6
20260507033219 12 180 3.2 6.4 0.00 0.00 0.00 79 1021.7
20260507032220 12 180 6.4 9.7 0.00 0.00 0.00 79 1021.8
20260507031219 12 180 4.8 9.7 0.00 0.00 0.00 79 1021.8
20260507030300 12 180 3.2 4.8 0.00 0.00 0.00 79 1021.7
20260507025220 12 180 4.8 6.4 0.00 0.00 0.00 79 1021.7
20260507024220 13 203 3.2 6.4 0.00 0.00 0.00 79 1021.5
20260507023219 13 270 1.6 3.2 0.00 0.00 0.00 79 1021.5
20260507022220 13 180 3.2 4.8 0.00 0.00 0.00 79 1021.5
20260507021219 13 158 3.2 6.4 0.00 0.00 0.00 78 1021.5
20260507020239 13 203 4.8 8.0 0.00 0.00 0.00 78 1021.5
20260507015219 13 203 4.8 8.0 0.00 0.00 0.00 78 1021.4
20260507014219 13 203 6.4 9.7 0.00 0.00 0.00 78 1021.4
20260507013219 13 203 6.4 9.7 0.00 0.00 0.00 78 1021.5
20260507012219 13 158 6.4 11.3 0.00 0.00 0.00 78 1021.7
20260507011219 13 225 4.8 9.7 0.00 0.00 0.00 79 1021.6
20260507010220 13 180 4.8 8.0 0.00 0.00 0.00 78 1021.6
20260507005220 13 158 3.2 8.0 0.00 0.00 0.00 78 1021.7
20260507004219 13 203 4.8 6.4 0.00 0.00 0.00 78 1021.6
20260507003219 13 203 4.8 8.0 0.00 0.00 0.00 77 1021.5
20260507002220 13 203 6.4 12.9 0.00 0.00 0.00 77 1021.7
20260507001219 13 180 4.8 8.0 0.00 0.00 0.00 77 1021.6
20260507000220 13 180 8.0 12.9 0.00 0.00 0.00 77 1021.7
20260506235220 13 203 11.3 17.7 0.00 0.00 0.00 77 1021.7
20260506234219 13 203 11.3 14.5 0.00 0.00 0.00 76 1021.7
20260506233219 13 203 4.8 9.7 0.00 0.00 0.00 76 1021.8
20260506232220 13 180 4.8 11.3 0.00 0.00 0.00 77 1021.7
20260506231239 13 203 9.7 12.9 0.00 0.00 0.00 76 1021.7
20260506230220 13 180 12.9 16.1 0.00 0.00 0.00 76 1021.8
20260506225219 13 203 8.0 12.9 0.00 0.00 0.00 76 1021.8
20260506224239 13 180 8.0 11.3 0.00 0.00 0.00 75 1021.8
20260506223219 13 203 12.9 19.3 0.00 0.00 0.00 74 1021.9
20260506222219 13 203 6.4 12.9 0.00 0.00 0.00 73 1021.8
20260506221239 13 203 8.0 12.9 0.00 0.00 0.00 73 1021.9
20260506220219 14 203 11.3 17.7 0.00 0.00 0.00 72 1021.9
20260506215219 13 203 8.0 14.5 0.00 0.00 0.00 72 1021.9
20260506214219 13 225 9.7 14.5 0.00 0.00 0.00 72 1021.9
20260506213219 14 203 9.7 14.5 0.00 0.00 0.00 72 1021.9
20260506212220 14 203 8.0 14.5 0.00 0.00 0.00 71 1022.0
20260506211239 14 203 6.4 9.7 0.00 0.00 0.00 72 1022.1
20260506210219 14 158 3.2 6.4 0.00 0.00 0.00 72 1021.9
20260506205219 14 203 8.0 12.9 0.00 0.00 0.00 72 1021.9
20260506204219 14 225 9.7 14.5 0.00 0.00 0.00 71 1021.8
20260506203219 13 203 8.0 16.1 0.00 0.00 0.00 74 1021.8
20260506202220 13 180 9.7 17.7 0.00 0.00 0.00 73 1021.8
20260506201219 13 180 8.0 12.9 0.00 0.00 0.00 74 1021.8
20260506200219 13 203 9.7 16.1 0.00 0.00 0.00 74 1021.8
20260506195219 13 158 8.0 19.3 0.00 0.00 0.00 76 1021.7
20260506194219 13 180 8.0 14.5 0.00 0.00 0.00 77 1021.6
20260506193219 13 203 6.4 24.1 0.00 0.00 0.00 76 1021.7
20260506192259 12 158 8.0 14.5 0.00 0.00 0.00 77 1021.6
20260506191219 12 135 8.0 19.3 0.00 0.00 0.00 79 1021.7
20260506190219 12 203 8.0 14.5 0.00 0.00 0.00 80 1021.5
20260506185219 12 180 6.4 12.9 0.00 0.00 0.00 80 1021.6
20260506184218 12 203 11.3 16.1 0.00 0.00 0.00 81 1021.6
20260506183219 12 225 4.8 8.0 0.00 0.00 0.00 82 1021.6
20260506182219 12 203 4.8 12.9 0.00 0.00 0.00 84 1021.5
20260506181219 11 203 12.9 14.5 0.00 0.00 0.00 84 1021.7
20260506180218 12 248 6.4 12.9 0.00 0.00 0.00 84 1021.7
20260506175219 12 180 6.4 11.3 0.00 0.00 0.00 85 1021.2
20260506174219 12 203 8.0 14.5 0.00 0.00 0.00 86 1021.1
20260506173219 11 158 6.4 11.3 0.00 0.00 0.00 87 1021.2
20260506172259 11 135 6.4 8.0 0.00 0.00 0.00 87 1021.4
20260506171219 11 158 11.3 16.1 0.00 0.00 0.00 86 1021.3
20260506170219 11 203 6.4 12.9 0.00 0.00 0.00 86 1021.4
20260506165239 11 203 8.0 12.9 0.00 0.00 0.00 87 1021.4
20260506164218 11 180 6.4 11.3 0.00 0.00 0.00 87 1021.2
20260506163219 11 203 4.8 6.4 0.00 0.00 0.00 87 1021.3
20260506162219 11 203 8.0 9.7 0.00 0.00 0.00 88 1021.1
20260506161221 11 158 8.0 16.1 0.00 0.00 0.00 90 1021.0
20260506160218 11 180 12.9 14.5 0.00 0.00 0.00 91 1020.8
20260506155219 10 203 9.7 16.1 0.00 0.00 0.00 91 1020.7
20260506154219 10 203 6.4 9.7 0.00 0.00 0.00 91 1020.8
20260506153221 10 180 3.2 6.4 0.00 0.00 0.00 91 1020.9
20260506152219 10 203 8.0 12.9 0.00 0.00 0.00 91 1021.0
20260506151218 10 225 4.8 8.0 0.00 0.00 0.00 91 1021.1
20260506150219 10 203 4.8 8.0 0.00 0.00 0.00 91 1020.9
20260506145218 10 203 6.4 11.3 0.00 0.00 0.00 90 1020.6
20260506144219 10 203 9.7 12.9 0.00 0.00 0.00 90 1020.8
20260506143219 10 180 6.4 9.7 0.00 0.00 0.00 90 1020.8
20260506142218 10 180 4.8 8.0 0.00 0.00 0.00 90 1020.9
20260506141219 10 203 6.4 9.7 0.00 0.00 0.00 89 1020.8
20260506140239 10 180 6.4 11.3 0.00 0.00 0.00 89 1020.6
20260506135219 10 180 4.8 8.0 0.00 0.00 0.00 89 1020.6
20260506134238 11 203 6.4 9.7 0.00 0.00 0.00 89 1020.7
20260506133218 11 180 3.2 6.4 0.00 0.00 0.00 89 1020.4
20260506132219 11 203 4.8 6.4 0.00 0.00 0.00 88 1021.2
20260506131218 11 203 6.4 11.3 0.00 0.00 0.00 88 1020.5
20260506130219 11 203 4.8 9.7 0.00 0.00 0.00 87 1020.4
20260506125220 11 180 4.8 12.9 0.00 0.00 0.00 87 1019.7
20260506124221 11 203 4.8 8.0 0.00 0.00 0.00 87 1020.0
20260506123221 11 203 1.6 3.2 0.00 0.00 0.00 87 1020.0
20260506122226 11 0.0 1.6 0.00 0.00 0.00 87 1019.8
20260506121227 11 180 1.6 3.2 0.00 0.00 0.00 87 1019.7
20260506120226 11 180 1.6 3.2 0.00 0.00 0.00 87 1019.7
20260506115226 11 203 4.8 8.0 0.00 0.00 0.00 87 1019.7
20260506114226 11 180 6.4 8.0 0.00 0.00 0.00 88 1019.6
20260506113226 11 180 4.8 6.4 0.00 0.00 0.00 88 1019.5
20260506112226 11 180 6.4 9.7 0.00 0.00 0.00 88 1019.4
20260506111226 11 180 4.8 6.4 0.00 0.00 0.00 87 1019.4
20260506110226 11 158 6.4 11.3 0.00 0.00 0.00 88 1019.4
20260506105226 11 158 3.2 6.4 0.00 0.00 0.00 87 1019.2
20260506104226 11 158 6.4 9.7 0.00 0.00 0.00 87 1019.2
20260506103226 11 180 3.2 8.0 0.00 0.00 0.00 87 1019.2
20260506102306 11 180 4.8 9.7 0.00 0.00 0.00 87 1019.2
20260506101220 11 158 3.2 8.0 0.00 0.00 0.00 87 1019.1
20260506100218 11 180 4.8 8.0 0.00 0.00 0.00 87 1019.0
20260506095219 11 180 9.7 14.5 0.00 0.00 0.00 87 1018.9
20260506094220 11 203 6.4 9.7 0.00 0.00 0.00 87 1018.7
20260506093220 11 203 3.2 8.0 0.00 0.00 0.00 86 1018.6
20260506092228 11 180 1.6 4.8 0.00 0.00 0.00 86 1018.6
20260506091228 11 180 4.8 8.0 0.00 0.00 0.00 86 1018.5
20260506090228 11 180 1.6 3.2 0.00 0.00 0.00 86 1018.4
20260506085228 11 225 8.0 9.7 0.00 0.00 0.00 85 1018.4
20260506084220 11 180 4.8 8.0 0.00 0.00 0.00 85 1018.2
20260506083220 11 180 4.8 6.4 0.00 0.00 0.00 85 1018.2
20260506082218 11 180 4.8 9.7 0.00 0.00 0.00 85 1018.1
20260506081220 12 180 6.4 9.7 0.00 0.00 0.00 85 1018.1
20260506080220 12 180 3.2 4.8 0.00 0.00 0.00 85 1018.0
20260506073219 12 180 1.6 3.2 0.00 0.00 0.00 84 1017.7
20260506072220 12 180 3.2 6.4 0.00 0.00 0.00 84 1017.8
20260506071220 12 158 3.2 8.0 0.00 0.00 0.00 83 1017.9
20260506070220 12 180 1.6 4.8 0.00 0.00 0.00 83 1017.8
20260506062220 13 180 3.2 4.8 0.00 0.00 0.00 81 1017.5
20260506061220 13 180 1.6 3.2 0.00 0.00 0.00 80 1017.5